Time,TemperatureF,DewpointF,PressureIn,WindDirection,WindDirectionDegrees,WindSpeedMPH,WindSpeedGustMPH,Humidity,HourlyPrecipIn,Conditions,Clouds,dailyrainin,SolarRadiationWatts/m^2,SoftwareType,DateUTC
2013-09-10 09:40:00,63.0,37.0,30.05,NNW,344,2.0,4.0,37,-99.99,,,-99.99,550.000000,,2013-09-10 16:40:00,
2013-09-10 10:40:00,70.0,38.0,30.04,WNW,285,2.0,4.0,31,-99.99,,,-99.99,720.000000,,2013-09-10 17:40:00,
2013-09-10 11:21:00,70.0,38.0,30.04,WNW,285,2.0,4.0,31,-99.99,,,-99.99,720.000000,,2013-09-10 18:21:00,
2013-09-10 11:32:00,70.0,38.0,30.04,WNW,285,2.0,4.0,31,-99.99,,,-99.99,720.000000,,2013-09-10 18:32:00,
2013-09-10 11:40:00,76.0,40.0,30.03,WNW,296,3.0,5.0,27,-99.99,,,-99.99,830.000000,,2013-09-10 18:40:00,
2013-09-10 12:21:00,76.0,40.0,30.03,WNW,296,3.0,5.0,27,-99.99,,,-99.99,830.000000,,2013-09-10 19:21:00,
2013-09-10 12:32:00,76.0,40.0,30.03,WNW,296,3.0,5.0,27,-99.99,,,-99.99,830.000000,,2013-09-10 19:32:00,
2013-09-10 12:40:00,79.0,38.0,30.00,SW,236,3.0,5.0,23,-99.99,,,-99.99,890.000000,,2013-09-10 19:40:00,
2013-09-10 13:21:00,79.0,38.0,30.00,SW,236,3.0,5.0,23,-99.99,,,-99.99,890.000000,,2013-09-10 20:21:00,
2013-09-10 13:32:00,79.0,38.0,30.00,SW,236,3.0,5.0,23,-99.99,,,-99.99,890.000000,,2013-09-10 20:32:00,
2013-09-10 13:40:00,79.0,38.0,29.98,West,270,4.0,8.0,23,-99.99,,,-99.99,880.000000,,2013-09-10 20:40:00,
2013-09-10 14:23:00,79.0,38.0,29.98,West,270,4.0,8.0,23,-99.99,,,-99.99,880.000000,,2013-09-10 21:23:00,
2013-09-10 14:34:00,79.0,38.0,29.98,West,270,4.0,8.0,23,-99.99,,,-99.99,880.000000,,2013-09-10 21:34:00,
2013-09-10 15:40:00,84.0,31.0,29.93,NW,321,3.0,6.0,15,-99.99,,,-99.99,670.000000,,2013-09-10 22:40:00,
2013-09-10 16:22:00,84.0,31.0,29.93,NW,321,3.0,6.0,15,-99.99,,,-99.99,670.000000,,2013-09-10 23:22:00,
2013-09-10 16:34:00,84.0,31.0,29.93,NW,321,3.0,6.0,15,-99.99,,,-99.99,670.000000,,2013-09-10 23:34:00,
2013-09-10 16:40:00,85.0,30.0,29.92,NNE,20,1.0,5.0,14,-99.99,,,-99.99,490.000000,,2013-09-10 23:40:00,
2013-09-10 17:22:00,85.0,30.0,29.92,NNE,20,1.0,5.0,14,-99.99,,,-99.99,490.000000,,2013-09-11 00:22:00,
2013-09-10 17:32:00,85.0,30.0,29.92,NNE,20,1.0,5.0,14,-99.99,,,-99.99,490.000000,,2013-09-11 00:32:00,
2013-09-10 18:21:00,83.0,39.0,29.92,North,1,4.0,8.0,21,-99.99,,,-99.99,280.000000,,2013-09-11 01:21:00,
2013-09-10 18:32:00,83.0,39.0,29.92,North,1,4.0,8.0,21,-99.99,,,-99.99,280.000000,,2013-09-11 01:32:00,